Weather History for Hailey, ID

Change the Weather History Date:

Monday, October 10, 2011

  Actual Average Record
Temperature  
Mean Temperature 44 °F -  
Max Temperature 53 °F 60 °F 73 °F (1996)
Min Temperature 35 °F 34 °F 26 °F (2008)
Degree Days  
Heating Degree Days 21    
Moisture  
Dew Point 36 °F    
Average Humidity 84    
Maximum Humidity 100    
Minimum Humidity 51    
Precipitation  
Precipitation 0.00 in - - ()
Sea Level Pressure  
Sea Level Pressure 29.97 in    
Wind  
Wind Speed 7 mph (NW)    
Max Wind Speed 14 mph    
Max Gust Speed -    
Visibility 9 miles    
Events Rain    
Averages and records for this station are not official NWS values.
T = Trace of Precipitation, MM = Missing Value Source: NWS Daily Summary

Daily Weather History Graph

Daily Weather History Graph

Search for Another Location

Airport:

Trip Planner

Search our weather history database for the weather conditions in past years. The results will help you decide how hot, cold, wet, or windy it might be!

Date:

Astronomy

Oct. 10, 2011 Rise Set
Actual Time 7:44 AM MDT 7:02 PM MDT
Civil Twilight 7:16 AM MDT 7:31 PM MDT
Nautical Twilight 6:43 AM MDT 8:04 PM MDT
Astronomical Twilight 6:09 AM MDT 8:37 PM MDT
Moon 6:08 PM MDT (10/10) 6:29 AM MDT (10/10)
Length of Visible Light 12h 15m
Length of Day
11h 17m
Waxing Gibbous, 98% of the Moon is Illuminated
Oct 10
Waxing Gibbous
Oct 11
Full
Oct 19
Last Quarter
Oct 26
New
Nov 2
First Quarter

Hourly Weather History & Observations

Time (MDT) Temp. Windchill Dew Point Humidity Pressure Visibility Wind Dir Wind Speed Gust Speed Precip Events Conditions
12:15 AM 41.0 °F 36.4 °F 33.8 °F 76% 30.02 in 10.0 mi WNW 6.9 mph - N/A   Clear
12:35 AM 41.0 °F 38.0 °F 33.8 °F 76% 30.02 in 10.0 mi NW 4.6 mph - N/A   Clear
12:55 AM 39.2 °F 35.0 °F 33.8 °F 81% 30.00 in 10.0 mi NW 5.8 mph - N/A   Scattered Clouds
1:15 AM 39.2 °F 34.2 °F 33.8 °F 81% 30.00 in 10.0 mi NW 6.9 mph - N/A   Scattered Clouds
1:35 AM 41.0 °F 37.1 °F 33.8 °F 76% 30.00 in 10.0 mi NW 5.8 mph - N/A   Scattered Clouds
1:55 AM 39.2 °F 34.2 °F 33.8 °F 81% 30.00 in 10.0 mi NW 6.9 mph - N/A   Scattered Clouds
2:15 AM 37.4 °F 32.8 °F 33.8 °F 87% 30.00 in 10.0 mi NNW 5.8 mph - N/A   Clear
2:35 AM 37.4 °F 32.8 °F 33.8 °F 87% 30.00 in 10.0 mi NW 5.8 mph - N/A   Clear
2:55 AM 37.4 °F 31.4 °F 33.8 °F 87% 30.00 in 10.0 mi NW 8.1 mph - N/A   Clear
3:15 AM 37.4 °F 30.3 °F 33.8 °F 87% 30.00 in 10.0 mi WNW 10.4 mph - N/A   Clear
3:35 AM 35.6 °F 28.0 °F 33.8 °F 93% 30.00 in 10.0 mi NNW 10.4 mph - N/A   Clear
3:55 AM 37.4 °F 31.4 °F 33.8 °F 87% 30.00 in 10.0 mi NW 8.1 mph - N/A   Clear
4:15 AM 37.4 °F 30.8 °F 33.8 °F 87% 30.00 in 10.0 mi NW 9.2 mph - N/A   Clear
4:35 AM 35.6 °F 29.2 °F 32.0 °F 87% 30.00 in 10.0 mi NW 8.1 mph - N/A   Clear
4:55 AM 35.6 °F 29.2 °F 32.0 °F 87% 30.00 in 10.0 mi NW 8.1 mph - N/A   Clear
5:15 AM 35.6 °F 29.2 °F 32.0 °F 87% 30.00 in 10.0 mi NW 8.1 mph - N/A   Clear
5:35 AM 35.6 °F 28.6 °F 32.0 °F 87% 30.00 in 10.0 mi NW 9.2 mph - N/A   Clear
5:55 AM 35.6 °F 29.2 °F 32.0 °F 87% 30.00 in 10.0 mi NW 8.1 mph - N/A   Clear
6:15 AM 35.6 °F 28.6 °F 32.0 °F 87% 30.00 in 10.0 mi NW 9.2 mph - N/A   Clear
6:35 AM 35.6 °F 29.2 °F 32.0 °F 87% 29.99 in 10.0 mi NW 8.1 mph - N/A   Clear
6:55 AM 35.6 °F 29.2 °F 32.0 °F 87% 29.99 in 10.0 mi NW 8.1 mph - N/A   Clear
7:47 AM 37.4 °F 31.4 °F 33.8 °F 87% 29.98 in 7.0 mi WNW 8.1 mph - N/A   Partly Cloudy
8:47 AM 37.4 °F 31.4 °F 33.8 °F 87% 29.97 in 7.0 mi WNW 8.1 mph - N/A   Scattered Clouds
9:47 AM 42.8 °F 35.8 °F 35.6 °F 76% 29.98 in 10.0 mi NW 13.8 mph - N/A   Scattered Clouds
10:47 AM 46.4 °F 43.5 °F 35.6 °F 66% 29.97 in 10.0 mi NW 5.8 mph - N/A   Mostly Cloudy
12:47 PM 51.8 °F - 35.6 °F 54% 29.94 in 10.0 mi SE 8.1 mph - N/A   Mostly Cloudy
1:47 PM 53.6 °F - 35.6 °F 51% 29.91 in 10.0 mi SE 9.2 mph - N/A   Mostly Cloudy
2:47 PM 51.8 °F - 37.4 °F 58% 29.89 in 10.0 mi SE 5.8 mph - N/A   Overcast
3:47 PM 48.2 °F - 39.2 °F 71% 29.91 in 5.0 mi SSE 9.2 mph - N/A Rain Rain
4:47 PM 46.4 °F - 41.0 °F 81% 29.92 in 5.0 mi Calm Calm - N/A Rain Rain
6:47 PM 44.6 °F - 42.8 °F 93% 29.91 in 7.0 mi Calm Calm - N/A Rain Light Rain
7:47 PM 44.6 °F - 42.8 °F 93% 29.91 in 7.0 mi Calm Calm - N/A Rain Light Rain
8:47 PM 42.8 °F - 42.8 °F 100% 29.92 in 7.0 mi Calm Calm - N/A Rain Light Rain
9:47 PM 42.8 °F - 42.8 °F 100% 29.92 in 7.0 mi Calm Calm - N/A   Mostly Cloudy
11:15 PM 41.0 °F 38.0 °F 41.0 °F 100% 29.93 in 10.0 mi North 4.6 mph - N/A   Overcast
11:35 PM 42.8 °F 40.1 °F 41.0 °F 93% 29.93 in 10.0 mi NW 4.6 mph - N/A Rain Light Rain
11:55 PM 41.0 °F - 41.0 °F 100% 29.92 in 10.0 mi Calm Calm - N/A Rain Light Rain